Niagara Falls, NY

2:42 PM EDT on April 22, 2018 (GMT -0400)
Niagara Falls International

Weather History for KIAG - September, 2013

Change the Weather History Date:

Friday, September 13, 2013

  Actual Average Record
Temperature  
Mean Temperature 56 °F -  
Max Temperature 61 °F 72 °F 86 °F (1990)
Min Temperature 50 °F 53 °F 44 °F (1992)
Degree Days  
Heating Degree Days 10    
Growing Degree Days 6 (Base 50)    
Moisture  
Dew Point 47 °F    
Average Humidity 81    
Maximum Humidity 89    
Minimum Humidity 71    
Precipitation  
Precipitation 0.09 in - - ()
Sea Level Pressure  
Sea Level Pressure 29.93 in    
Wind  
Wind Speed 10 mph (NNW)    
Max Wind Speed 13 mph    
Max Gust Speed -    
Visibility 8 miles    
Events Rain    
Averages and records for this station are not official NWS values.
T = Trace of Precipitation, MM = Missing Value Source: NWS Daily Summary

Daily Weather History Graph

Daily Weather History Graph

Search for Another Location

Airport or City:

Astronomy

Sep. 13, 2013 Rise Set
Actual Time 6:53 AM EDT 7:28 PM EDT
Civil Twilight 6:24 AM EDT 7:57 PM EDT
Nautical Twilight 5:50 AM EDT 8:31 PM EDT
Astronomical Twilight 5:15 AM EDT 9:06 PM EDT
Moon 3:23 PM EDT (9/13) 12:14 AM EDT (9/13)
Length of Visible Light 13h 32m
Length of Day
12h 35m
First Quarter, 61% of the Moon is Illuminated
Sep 13
First Quarter
Sep 19
Full
Sep 26
Last Quarter
Oct 4
New
Oct 11
First Quarter

Hourly Weather History & Observations

Time (EDT) Temp. Dew Point Humidity Pressure Visibility Wind Dir Wind Speed Gust Speed Precip Events Conditions
12:53 AM 61.0 °F 54.0 °F 78% 29.80 in 10.0 mi NNW 9.2 mph - N/A   Partly Cloudy
1:53 AM 60.1 °F 54.0 °F 80% 29.81 in 10.0 mi NNW 6.9 mph - N/A   Scattered Clouds
2:53 AM 59.0 °F 52.0 °F 78% 29.82 in 10.0 mi North 10.4 mph - N/A   Mostly Cloudy
3:53 AM 57.0 °F 51.1 °F 81% 29.82 in 10.0 mi NNW 10.4 mph - N/A   Clear
4:53 AM 55.9 °F 51.1 °F 84% 29.83 in 10.0 mi NNW 8.1 mph - N/A   Scattered Clouds
5:53 AM 55.0 °F 48.0 °F 77% 29.84 in 10.0 mi North 11.5 mph - N/A   Scattered Clouds
6:41 AM 55.4 °F 48.2 °F 77% 29.85 in 10.0 mi North 12.7 mph - 0.00 in Rain Light Rain
6:53 AM 54.0 °F 48.9 °F 83% 29.86 in 10.0 mi North 9.2 mph - 0.00 in Rain Light Rain
6:57 AM 53.6 °F 50.0 °F 88% 29.85 in 9.0 mi North 12.7 mph - 0.01 in Rain Light Rain
7:11 AM 53.6 °F 50.0 °F 88% 29.86 in 5.0 mi North 10.4 mph - 0.02 in Rain Light Rain
7:31 AM 53.6 °F 48.2 °F 82% 29.87 in 10.0 mi North 9.2 mph - 0.02 in   Mostly Cloudy
7:46 AM 53.6 °F 48.2 °F 82% 29.87 in 7.0 mi North 9.2 mph - 0.02 in Rain Light Rain
7:53 AM 53.1 °F 48.9 °F 86% 29.88 in 7.0 mi North 10.4 mph - 0.03 in Rain Light Rain
8:16 AM 51.8 °F 48.2 °F 88% 29.88 in 4.0 mi North 12.7 mph - 0.00 in Rain Light Rain
8:47 AM 51.8 °F 48.2 °F 88% 29.89 in 7.0 mi North 8.1 mph - 0.01 in   Overcast
8:53 AM 52.0 °F 48.0 °F 86% 29.90 in 7.0 mi North 9.2 mph - 0.01 in   Overcast
9:17 AM 51.8 °F 48.2 °F 88% 29.90 in 7.0 mi NNW 9.2 mph - 0.00 in Rain Light Rain
9:40 AM 53.6 °F 48.2 °F 82% 29.90 in 7.0 mi North 6.9 mph - 0.00 in Rain Light Rain
9:53 AM 52.0 °F 46.9 °F 83% 29.92 in 7.0 mi North 9.2 mph - 0.00 in Rain Light Rain
10:08 AM 51.8 °F 46.4 °F 82% 29.91 in 5.0 mi North 9.2 mph - 0.00 in Rain Light Rain
10:18 AM 51.8 °F 48.2 °F 88% 29.92 in 2.5 mi North 12.7 mph - 0.01 in Rain Light Rain
10:44 AM 51.8 °F 48.2 °F 88% 29.92 in 2.0 mi North 11.5 mph - 0.02 in Rain Light Rain
10:53 AM 51.1 °F 48.0 °F 89% 29.94 in 2.0 mi North 12.7 mph - 0.02 in Rain Light Rain
11:11 AM 51.8 °F 48.2 °F 88% 29.93 in 3.0 mi North 10.4 mph - 0.00 in Rain Light Rain
11:44 AM 51.8 °F 46.4 °F 82% 29.94 in 7.0 mi North 9.2 mph - 0.00 in   Overcast
11:53 AM 52.0 °F 46.0 °F 80% 29.95 in 7.0 mi North 8.1 mph - 0.00 in   Overcast
12:26 PM 51.8 °F 46.4 °F 82% 29.95 in 6.0 mi NNW 11.5 mph - 0.00 in Rain Light Rain
12:53 PM 51.1 °F 46.9 °F 86% 29.96 in 4.0 mi NNW 10.4 mph - 0.01 in Rain Light Rain
1:03 PM 51.8 °F 46.4 °F 82% 29.95 in 2.5 mi NW 12.7 mph - 0.00 in Rain Light Rain
1:40 PM 50.0 °F 46.4 °F 87% 29.95 in 2.5 mi NNW 10.4 mph - 0.01 in Rain Light Rain
1:53 PM 50.0 °F 46.9 °F 89% 29.96 in 2.5 mi NW 11.5 mph - 0.01 in Rain Light Rain
2:34 PM 50.0 °F 46.4 °F 87% 29.95 in 3.0 mi NNW 9.2 mph - 0.01 in Rain Light Rain
2:53 PM 51.1 °F 46.9 °F 86% 29.96 in 6.0 mi NNW 9.2 mph - 0.01 in Rain Light Rain
3:09 PM 51.8 °F 46.4 °F 82% 29.95 in 10.0 mi NNW 12.7 mph - 0.00 in   Light Drizzle
3:20 PM 51.8 °F 46.4 °F 82% 29.95 in 10.0 mi NNW 9.2 mph - 0.00 in   Overcast
3:53 PM 53.1 °F 45.0 °F 74% 29.97 in 10.0 mi NNW 11.5 mph - 0.00 in   Overcast
4:53 PM 52.0 °F 45.0 °F 77% 29.98 in 10.0 mi NW 12.7 mph - N/A   Overcast
5:06 PM 51.8 °F 44.6 °F 76% 29.97 in 10.0 mi NW 10.4 mph - 0.00 in   Light Drizzle
5:24 PM 51.8 °F 44.6 °F 76% 29.98 in 10.0 mi NNW 8.1 mph - 0.00 in   Overcast
5:47 PM 51.8 °F 44.6 °F 76% 29.98 in 10.0 mi NNW 9.2 mph - 0.00 in Rain Light Rain
5:53 PM 52.0 °F 45.0 °F 77% 29.99 in 10.0 mi NW 5.8 mph - 0.00 in Rain Light Rain
6:53 PM 52.0 °F 44.1 °F 74% 30.01 in 10.0 mi NNW 10.4 mph - 0.00 in Rain Light Rain
7:10 PM 51.8 °F 44.6 °F 76% 30.00 in 10.0 mi NNW 12.7 mph - 0.00 in Rain Light Rain
7:53 PM 51.1 °F 44.1 °F 77% 30.02 in 10.0 mi North 8.1 mph - 0.00 in Rain Light Rain
8:53 PM 51.1 °F 43.0 °F 74% 30.05 in 10.0 mi NNW 6.9 mph - 0.00 in Rain Light Rain
9:53 PM 50.0 °F 42.1 °F 74% 30.06 in 10.0 mi NNW 6.9 mph - 0.00 in   Light Drizzle
10:43 PM 50.0 °F 42.8 °F 76% 30.05 in 10.0 mi NNW 4.6 mph - 0.00 in   Overcast
10:53 PM 50.0 °F 41.0 °F 71% 30.07 in 10.0 mi NNW 4.6 mph - 0.00 in   Overcast
11:53 PM 50.0 °F 42.1 °F 74% 30.06 in 10.0 mi North 5.8 mph - N/A   Overcast